Regional Weather Roundup
Issued by NWS

Home | Current Version | Previous Version | Text Only | Print | Product List | Glossary Off
Versions: 1 2 3 4 5 6 7 8 9 10 11 12 13 14 15 16 17 18 19 20 21 22 23 24 25 26 27 28 29 30 31 32 33 34 35 36 37 38 39 40 41 42 43 44 45 46 47 48 49 50

000
ASUS45 KCYS 261310
RWRWY

WYOMING REGIONAL WEATHER ROUNDUP
NATIONAL WEATHER SERVICE CHEYENNE WY
700 AM MDT TUE MAY 26 2015

NOTE:  "FAIR" INDICATES FEW OR NO CLOUDS BELOW 12,000 FEET
WITH NO SIGNIFICANT WEATHER AND/OR OBSTRUCTIONS TO VISIBILITY.

WYZ001-261400-
YELLOWSTONE NATIONAL PARK

CITY           SKY/WX    TMP DP  RH WIND       PRES   REMARKS
LK YELLOWSTONE   N/A     38  37  97 CALM      30.11R
W YELLOWSTONE  NOT AVBL

$$
WYZ002>013-054>058-071-098>099-261400-
NORTHERN WYOMING

CITY           SKY/WX    TMP DP  RH WIND       PRES   REMARKS
JACKSON        PTSUNNY   43  43 100 CALM      30.07R
CODY           PTSUNNY   50  43  76 CALM      29.97R
GREYBULL       FAIR      48  44  86 SE3       29.95R
WORLAND        FAIR      48  46  93 CALM      29.95R
SHERIDAN       FAIR      43  41  93 CALM      29.95S
BUFFALO        FAIR      49  43  80 NW5       29.97R
GILLETTE       FAIR      45  45 100 S3        29.97S
HULETT         CLOUDY    46  46 100 CALM      30.00R
NEWCASTLE      CLOUDY    50  50 100 S6        30.02R

$$
WYZ014>020-022>026-101>103-261400-
CENTRAL WYOMING

CITY           SKY/WX    TMP DP  RH WIND       PRES   REMARKS
BIG PINEY      FAIR      37  34  89 CALM      30.10R
PINEDALE       FAIR      37  37 100 SW3       30.10R
DUBOIS         CLOUDY    39  36  87 NW14      30.07R WCI  31
LANDER         FAIR      42  39  89 SE3       30.00R
RIVERTON       FAIR      46  41  82 W8        30.02R
CASPER         FAIR      47  43  86 SE3       30.01R
DOUGLAS        FAIR      45  44  97 SE3       30.02R

$$
WYZ021-027>030-104>119-261400-
SOUTHERN WYOMING

CITY           SKY/WX    TMP DP  RH WIND       PRES   REMARKS
EVANSTON       CLOUDY    42  38  85 S5        30.10R
KEMMERER       FAIR      36  36 100 N9        30.11R WCI  29
FORT BRIDGER   CLOUDY    46  39  76 W7        30.12R
ROCK SPRINGS   FAIR      44  39  82 SW7       30.09R
DIXON          FAIR      41  39  93 CALM      30.13R
RAWLINS        FAIR      45  41  86 SW5       30.08R
SARATOGA       CLOUDY    43  41  93 SE7       30.12R
LARAMIE        PTSUNNY   42  39  89 S3        30.08R
CHEYENNE       FAIR      45  38  76 CALM      30.05R
TORRINGTON     CLOUDY    47  47 100 CALM      30.01R
PINE BLUFFS    CLOUDY    45  43  93 CALM      30.04S

$$



USA.gov is the U.S. government's official web portal to all federal, state and local government web resources and services.